QPF
0.00 0.00 0.00 0.00 0.00 0.01 0.01 0.01 0.02 0.03 0.01 0.00 0.01 0.01 0.01 0.01 0.00 0.00 0.01 0.01 0.01 0.01 0.00 0.01 0.01 0.02 0.01 0.02 0.03 0.03 0.04 0.04 0.04 0.04 0.04 0.03 0.02 0.02 0.03 0.03 0.02 0.02 0.02 0.02
0.00 0.00 0.00 0.00 0.00 0.00 0.01 0.01 0.01 0.02 0.01 0.01 0.01 0.01 0.02 0.02 0.01 0.01 0.01 0.01 0.01 0.01 0.01 0.01 0.02 0.02 0.03 0.04 0.04 0.03 0.04 0.05 0.06 0.05 0.05 0.03 0.03 0.03 0.04 0.03 0.03 0.02 0.03 0.03
0.00 0.00 0.00 0.00 0.00 0.00 0.00 0.00 0.00 0.01 0.01 0.01 0.00 0.01 0.02 0.03 0.03 0.03 0.02 0.01 0.01 0.01 0.01 0.01 0.03 0.04 0.05 0.04 0.03 0.03 0.04 0.06 0.06 0.06 0.05 0.05 0.04 0.04 0.04 0.04 0.04 0.03 0.03 0.03
0.00 0.00 0.00 0.00 0.00 0.00 0.00 0.00 0.00 0.00 0.01 0.01 0.00 0.00 0.01 0.02 0.02 0.03 0.04 0.02 0.01 0.01 0.01 0.01 0.02 0.03 0.03 0.02 0.02 0.04 0.05 0.05 0.04 0.04 0.04 0.04 0.04 0.03 0.03 0.04 0.05 0.05 0.05 0.04
0.00 0.01 0.00 0.00 0.00 0.00 0.00 0.00 0.00 0.01 0.01 0.01 0.00 0.01 0.02 0.02 0.02 0.03 0.02 0.02 0.02 0.01 0.01 0.01 0.01 0.01 0.01 0.03 0.04 0.06 0.04 0.03 0.02 0.02 0.03 0.03 0.02 0.03 0.03 0.02 0.02 0.03 0.03 0.03
0.00 0.01 0.00 0.00 0.00 0.00 0.00 0.00 0.00 0.01 0.02 0.01 0.01 0.03 0.05 0.02 0.02 0.02 0.01 0.01 0.01 0.01 0.02 0.02 0.01 0.01 0.04 0.06 0.07 0.08 0.03 0.02 0.02 0.03 0.03 0.03 0.02 0.03 0.02 0.01 0.02 0.02 0.02 0.02
0.00 0.01 0.00 0.00 0.00 0.00 0.01 0.01 0.01 0.02 0.02 0.01 0.02 0.04 0.04 0.01 0.01 0.01 0.01 0.01 0.01 0.01 0.02 0.02 0.02 0.02 0.03 0.04 0.05 0.03 0.04 0.04 0.03 0.03 0.03 0.03 0.03 0.03 0.03 0.03 0.03 0.04 0.04 0.05
0.00 0.01 0.00 0.00 0.00 0.01 0.00 0.00 0.01 0.03 0.04 0.03 0.02 0.02 0.03 0.02 0.01 0.02 0.02 0.01 0.01 0.01 0.01 0.01 0.02 0.03 0.03 0.03 0.02 0.02 0.03 0.03 0.04 0.05 0.04 0.02 0.03 0.03 0.04 0.05 0.06 0.06 0.06 0.05
0.01 0.01 0.01 0.01 0.01 0.01 0.00 0.00 0.00 0.02 0.04 0.05 0.03 0.02 0.02 0.02 0.01 0.01 0.01 0.01 0.01 0.01 0.01 0.01 0.02 0.02 0.03 0.04 0.03 0.03 0.03 0.03 0.03 0.03 0.03 0.03 0.04 0.06 0.07 0.07 0.08 0.07 0.07 0.05
0.01 0.01 0.01 0.01 0.01 0.01 0.01 0.01 0.01 0.01 0.01 0.03 0.03 0.02 0.02 0.03 0.02 0.01 0.01 0.01 0.01 0.02 0.02 0.02 0.03 0.03 0.03 0.03 0.02 0.03 0.03 0.03 0.03 0.03 0.03 0.04 0.04 0.05 0.05 0.08 0.09 0.08 0.07 0.06
0.01 0.01 0.01 0.01 0.01 0.01 0.01 0.01 0.01 0.01 0.01 0.01 0.01 0.00 0.01 0.02 0.03 0.03 0.02 0.01 0.01 0.01 0.02 0.02 0.03 0.03 0.04 0.03 0.03 0.03 0.03 0.02 0.02 0.02 0.02 0.02 0.02 0.02 0.03 0.03 0.04 0.04 0.03 0.03
0.01 0.01 0.01 0.01 0.01 0.01 0.01 0.00 0.00 0.00 0.01 0.01 0.01 0.01 0.01 0.01 0.01 0.02 0.03 0.03 0.02 0.02 0.02 0.03 0.03 0.02 0.03 0.03 0.03 0.03 0.02 0.02 0.02 0.02 0.02 0.02 0.02 0.03 0.03 0.02 0.03 0.03 0.02 0.02
0.01 0.00 0.00 0.00 0.00 0.00 0.01 0.01 0.01 0.01 0.01 0.00 0.01 0.01 0.02 0.02 0.03 0.03 0.04 0.04 0.04 0.03 0.02 0.02 0.01 0.02 0.02 0.03 0.02 0.02 0.03 0.03 0.03 0.03 0.02 0.02 0.03 0.03 0.02 0.02 0.02 0.03 0.04 0.03
0.00 0.00 0.00 0.00 0.00 0.00 0.01 0.01 0.01 0.01 0.01 0.00 0.01 0.01 0.01 0.02 0.02 0.02 0.02 0.02 0.01 0.01 0.01 0.01 0.01 0.01 0.02 0.02 0.02 0.01 0.02 0.03 0.03 0.03 0.03 0.02 0.02 0.03 0.03 0.03 0.03 0.03 0.03 0.05
0.00 0.00 0.00 0.00 0.00 0.00 0.01 0.01 0.01 0.00 0.00 0.01 0.01 0.00 0.00 0.00 0.00 0.01 0.01 0.00 0.01 0.01 0.00 0.01 0.01 0.01 0.01 0.02 0.02 0.02 0.01 0.02 0.04 0.06 0.05 0.05 0.03 0.03 0.03 0.04 0.04 0.04 0.04 0.05
0.00 0.00 0.00 0.00 0.01 0.01 0.00 0.00 0.00 0.00 0.00 0.01 0.01 0.01 0.01 0.01 0.01 0.01 0.01 0.01 0.01 0.01 0.01 0.01 0.01 0.01 0.02 0.02 0.02 0.02 0.02 0.03 0.04 0.05 0.07 0.07 0.07 0.06 0.05 0.06 0.06 0.06 0.06 0.07
0.01 0.01 0.01 0.00 0.00 0.00 0.00 0.01 0.01 0.01 0.01 0.02 0.02 0.02 0.02 0.02 0.02 0.02 0.02 0.02 0.02 0.02 0.02 0.02 0.01 0.01 0.01 0.02 0.02 0.03 0.04 0.06 0.07 0.07 0.07 0.07 0.06 0.05 0.05 0.06 0.07 0.07 0.08 0.08
0.01 0.01 0.01 0.01 0.00 0.00 0.00 0.01 0.01 0.02 0.02 0.03 0.03 0.03 0.03 0.02 0.02 0.02 0.02 0.02 0.03 0.03 0.02 0.02 0.01 0.01 0.01 0.01 0.02 0.02 0.03 0.03 0.04 0.04 0.04 0.04 0.04 0.03 0.03 0.05 0.05 0.06 0.07 0.07
0.01 0.01 0.01 0.01 0.01 0.01 0.00 0.00 0.01 0.01 0.02 0.03 0.03 0.02 0.02 0.02 0.02 0.02 0.02 0.02 0.02 0.03 0.03 0.02 0.02 0.02 0.02 0.01 0.01 0.02 0.02 0.02 0.02 0.03 0.03 0.03 0.03 0.03 0.03 0.04 0.04 0.04 0.04 0.05
0.01 0.01 0.01 0.01 0.01 0.01 0.01 0.01 0.01 0.01 0.01 0.02 0.02 0.01 0.01 0.02 0.02 0.02 0.01 0.01 0.01 0.02 0.02 0.02 0.02 0.01 0.01 0.01 0.01 0.01 0.02 0.02 0.02 0.02 0.02 0.02 0.02 0.02 0.02 0.02 0.03 0.03 0.02 0.02
0.01 0.01 0.01 0.01 0.01 0.01 0.01 0.01 0.01 0.01 0.01 0.01 0.01 0.01 0.01 0.01 0.02 0.02 0.02 0.02 0.01 0.01 0.01 0.01 0.01 0.01 0.01 0.01 0.02 0.02 0.02 0.03 0.03 0.03 0.03 0.02 0.02 0.01 0.01 0.01 0.01 0.01 0.01 0.01
0.01 0.01 0.02 0.02 0.03 0.03 0.01 0.01 0.01 0.01 0.01 0.01 0.01 0.02 0.02 0.03 0.03 0.03 0.02 0.02 0.01 0.01 0.01 0.00 0.00 0.00 0.01 0.03 0.05 0.05 0.04 0.04 0.04 0.02 0.02 0.01 0.01 0.01 0.01 0.01 0.01 0.01 0.00 0.00
0.01 0.01 0.01 0.01 0.01 0.01 0.01 0.01 0.01 0.01 0.02 0.02 0.03 0.04 0.04 0.03 0.03 0.03 0.02 0.01 0.01 0.01 0.01 0.01 0.01 0.01 0.01 0.01 0.02 0.02 0.02 0.02 0.02 0.02 0.01 0.01 0.01 0.01 0.01 0.01 0.01 0.01 0.01 0.01
0.03 0.01 0.01 0.01 0.01 0.01 0.01 0.01 0.02 0.03 0.03 0.03 0.03 0.03 0.03 0.03 0.02 0.02 0.02 0.01 0.01 0.01 0.01 0.01 0.01 0.01 0.01 0.00 0.01 0.01 0.01 0.00 0.00 0.01 0.01 0.02 0.02 0.01 0.01 0.01 0.02 0.02 0.02 0.02
0.01 0.01 0.01 0.01 0.01 0.02 0.02 0.02 0.02 0.02 0.02 0.02 0.02 0.02 0.02 0.02 0.02 0.01 0.01 0.00 0.01 0.00 0.00 0.01 0.01 0.01 0.01 0.00 0.00 0.00 0.00 0.00 0.00 0.01 0.01 0.01 0.01 0.01 0.02 0.02 0.02 0.02 0.01 0.01
0.03 0.02 0.01 0.01 0.02 0.01 0.01 0.01 0.01 0.01 0.01 0.01 0.01 0.01 0.01 0.01 0.01 0.01 0.01 0.01 0.01 0.01 0.01 0.01 0.01 0.01 0.01 0.01 0.00 0.00 0.00 0.00 0.00 0.00 0.00 0.01 0.01 0.01 0.01 0.01 0.01 0.01 0.01 0.01
0.03 0.03 0.02 0.02 0.02 0.01 0.01 0.01 0.01 0.01 0.01 0.02 0.02 0.02 0.01 0.01 0.01 0.01 0.01 0.01 0.01 0.01 0.00 0.00 0.00 0.00 0.00 0.00 0.00 0.00 0.00 0.00 0.00 0.00 0.00 0.00 0.01 0.01 0.01 0.01 0.01 0.01 0.01 0.01
MSLP
1010.76 1010.99 1011.24 1011.49 1011.70 1011.85 1011.90 1011.82 1011.60 1011.26 1010.82 1010.31 1009.81 1009.34 1008.97 1008.70 1008.54 1008.49 1008.52 1008.61 1008.71 1008.82 1008.91 1009.00 1009.09 1009.21 1009.38 1009.60 1009.88 1010.22 1010.59 1010.98 1011.34 1011.66 1011.91 1012.09 1012.20 1012.24 1012.23 1012.19 1012.14 1012.08 1012.03 1012.00
1010.98 1011.17 1011.34 1011.49 1011.59 1011.62 1011.57 1011.42 1011.17 1010.82 1010.41 1009.97 1009.52 1009.12 1008.79 1008.54 1008.37 1008.29 1008.27 1008.29 1008.34 1008.41 1008.50 1008.60 1008.74 1008.93 1009.17 1009.47 1009.83 1010.22 1010.64 1011.04 1011.42 1011.74 1011.99 1012.18 1012.30 1012.36 1012.38 1012.37 1012.35 1012.33 1012.31 1012.29
1011.25 1011.38 1011.48 1011.53 1011.52 1011.45 1011.30 1011.08 1010.78 1010.43 1010.04 1009.64 1009.25 1008.90 1008.60 1008.37 1008.19 1008.07 1008.00 1007.97 1007.97 1008.01 1008.08 1008.21 1008.38 1008.63 1008.94 1009.31 1009.73 1010.18 1010.63 1011.05 1011.43 1011.75 1011.99 1012.17 1012.28 1012.34 1012.37 1012.37 1012.37 1012.35 1012.34 1012.33
1011.51 1011.59 1011.62 1011.59 1011.48 1011.31 1011.08 1010.79 1010.46 1010.11 1009.73 1009.37 1009.03 1008.73 1008.46 1008.24 1008.07 1007.92 1007.82 1007.74 1007.70 1007.71 1007.77 1007.90 1008.10 1008.38 1008.73 1009.15 1009.62 1010.10 1010.57 1011.00 1011.37 1011.67 1011.90 1012.05 1012.14 1012.19 1012.21 1012.21 1012.20 1012.18 1012.16 1012.13
1011.73 1011.76 1011.73 1011.62 1011.44 1011.20 1010.90 1010.57 1010.22 1009.86 1009.51 1009.19 1008.90 1008.64 1008.42 1008.22 1008.05 1007.91 1007.78 1007.68 1007.61 1007.59 1007.63 1007.75 1007.95 1008.24 1008.61 1009.05 1009.52 1010.00 1010.47 1010.88 1011.23 1011.51 1011.71 1011.83 1011.90 1011.93 1011.93 1011.91 1011.89 1011.86 1011.82 1011.76
1011.88 1011.86 1011.77 1011.61 1011.38 1011.09 1010.76 1010.41 1010.05 1009.71 1009.39 1009.11 1008.87 1008.67 1008.49 1008.33 1008.18 1008.04 1007.91 1007.80 1007.71 1007.67 1007.69 1007.79 1007.98 1008.26 1008.61 1009.02 1009.47 1009.92 1010.35 1010.73 1011.05 1011.28 1011.44 1011.54 1011.58 1011.58 1011.56 1011.53 1011.49 1011.45 1011.40 1011.33
1011.94 1011.87 1011.74 1011.54 1011.28 1010.98 1010.64 1010.30 1009.96 1009.66 1009.38 1009.15 1008.96 1008.81 1008.67 1008.55 1008.43 1008.32 1008.20 1008.08 1007.99 1007.94 1007.95 1008.02 1008.18 1008.41 1008.72 1009.08 1009.48 1009.87 1010.24 1010.57 1010.83 1011.02 1011.14 1011.20 1011.21 1011.19 1011.16 1011.12 1011.07 1011.03 1010.97 1010.90
1011.90 1011.79 1011.63 1011.41 1011.15 1010.86 1010.55 1010.23 1009.94 1009.68 1009.46 1009.28 1009.14 1009.03 1008.94 1008.86 1008.77 1008.68 1008.58 1008.48 1008.39 1008.33 1008.32 1008.37 1008.49 1008.67 1008.92 1009.22 1009.54 1009.86 1010.15 1010.41 1010.60 1010.74 1010.82 1010.84 1010.83 1010.80 1010.75 1010.71 1010.66 1010.62 1010.57 1010.51
1011.76 1011.61 1011.43 1011.21 1010.97 1010.72 1010.45 1010.20 1009.97 1009.76 1009.59 1009.46 1009.36 1009.29 1009.23 1009.18 1009.12 1009.05 1008.97 1008.89 1008.81 1008.75 1008.74 1008.76 1008.84 1008.98 1009.17 1009.39 1009.63 1009.87 1010.08 1010.26 1010.39 1010.48 1010.51 1010.50 1010.47 1010.42 1010.36 1010.31 1010.27 1010.23 1010.19 1010.15
1011.53 1011.35 1011.16 1010.96 1010.76 1010.56 1010.36 1010.18 1010.01 1009.87 1009.75 1009.66 1009.59 1009.54 1009.50 1009.46 1009.41 1009.35 1009.29 1009.23 1009.17 1009.13 1009.11 1009.12 1009.18 1009.27 1009.40 1009.56 1009.73 1009.89 1010.03 1010.14 1010.20 1010.23 1010.22 1010.18 1010.12 1010.05 1009.98 1009.93 1009.88 1009.84 1009.81 1009.78
1011.23 1011.02 1010.84 1010.67 1010.52 1010.39 1010.27 1010.16 1010.06 1009.98 1009.91 1009.84 1009.79 1009.74 1009.69 1009.65 1009.60 1009.55 1009.50 1009.45 1009.41 1009.38 1009.37 1009.39 1009.43 1009.50 1009.59 1009.69 1009.80 1009.90 1009.97 1010.02 1010.03 1010.01 1009.95 1009.88 1009.79 1009.69 1009.60 1009.53 1009.47 1009.42 1009.39 1009.35
1010.90 1010.68 1010.51 1010.38 1010.29 1010.23 1010.19 1010.15 1010.12 1010.09 1010.05 1010.00 1009.94 1009.88 1009.82 1009.75 1009.69 1009.63 1009.58 1009.54 1009.51 1009.50 1009.51 1009.54 1009.58 1009.63 1009.70 1009.77 1009.83 1009.88 1009.90 1009.90 1009.86 1009.79 1009.70 1009.59 1009.46 1009.33 1009.21 1009.10 1009.01 1008.94 1008.87 1008.82
1010.60 1010.38 1010.23 1010.14 1010.11 1010.12 1010.15 1010.18 1010.20 1010.21 1010.18 1010.14 1010.07 1009.98 1009.88 1009.79 1009.70 1009.63 1009.57 1009.54 1009.52 1009.53 1009.55 1009.59 1009.63 1009.69 1009.74 1009.78 1009.81 1009.82 1009.81 1009.76 1009.68 1009.58 1009.44 1009.29 1009.13 1008.95 1008.79 1008.63 1008.50 1008.37 1008.27 1008.17
1010.38 1010.17 1010.05 1010.01 1010.04 1010.11 1010.19 1010.27 1010.33 1010.36 1010.34 1010.28 1010.19 1010.07 1009.94 1009.81 1009.69 1009.60 1009.53 1009.49 1009.48 1009.50 1009.54 1009.58 1009.64 1009.69 1009.73 1009.75 1009.76 1009.73 1009.68 1009.60 1009.49 1009.34 1009.17 1008.98 1008.77 1008.55 1008.34 1008.13 1007.93 1007.75 1007.59 1007.43
1010.31 1010.12 1010.04 1010.04 1010.11 1010.22 1010.34 1010.45 1010.53 1010.56 1010.54 1010.46 1010.34 1010.19 1010.02 1009.86 1009.71 1009.60 1009.52 1009.48 1009.47 1009.49 1009.53 1009.58 1009.63 1009.67 1009.69 1009.69 1009.66 1009.61 1009.52 1009.41 1009.26 1009.08 1008.87 1008.64 1008.39 1008.13 1007.86 1007.60 1007.34 1007.10 1006.87 1006.66
1010.42 1010.27 1010.21 1010.24 1010.34 1010.47 1010.61 1010.73 1010.80 1010.82 1010.78 1010.68 1010.53 1010.34 1010.15 1009.96 1009.80 1009.67 1009.58 1009.54 1009.53 1009.54 1009.57 1009.61 1009.64 1009.66 1009.65 1009.61 1009.55 1009.45 1009.33 1009.17 1008.99 1008.77 1008.53 1008.27 1007.99 1007.69 1007.38 1007.07 1006.77 1006.47 1006.19 1005.92
1010.72 1010.60 1010.58 1010.62 1010.73 1010.86 1010.98 1011.08 1011.13 1011.12 1011.05 1010.92 1010.74 1010.53 1010.32 1010.12 1009.95 1009.81 1009.72 1009.67 1009.66 1009.67 1009.68 1009.69 1009.69 1009.67 1009.61 1009.53 1009.41 1009.27 1009.09 1008.89 1008.67 1008.42 1008.16 1007.87 1007.56 1007.24 1006.91 1006.57 1006.24 1005.91 1005.59 1005.29
1011.18 1011.09 1011.08 1011.13 1011.22 1011.32 1011.41 1011.46 1011.47 1011.41 1011.30 1011.13 1010.93 1010.71 1010.49 1010.29 1010.12 1009.99 1009.91 1009.86 1009.84 1009.84 1009.83 1009.81 1009.76 1009.69 1009.58 1009.43 1009.25 1009.05 1008.82 1008.57 1008.31 1008.04 1007.75 1007.45 1007.13 1006.81 1006.47 1006.13 1005.79 1005.45 1005.12 1004.81
1011.74 1011.67 1011.66 1011.68 1011.73 1011.78 1011.81 1011.80 1011.74 1011.63 1011.47 1011.27 1011.04 1010.81 1010.59 1010.41 1010.26 1010.15 1010.08 1010.04 1010.02 1010.00 1009.97 1009.91 1009.82 1009.69 1009.51 1009.30 1009.06 1008.79 1008.51 1008.22 1007.93 1007.63 1007.33 1007.03 1006.72 1006.41 1006.09 1005.76 1005.44 1005.11 1004.80 1004.49
1012.30 1012.24 1012.21 1012.19 1012.18 1012.16 1012.11 1012.02 1011.88 1011.71 1011.49 1011.26 1011.01 1010.78 1010.58 1010.41 1010.28 1010.20 1010.16 1010.14 1010.12 1010.10 1010.05 1009.96 1009.82 1009.63 1009.40 1009.13 1008.83 1008.50 1008.18 1007.85 1007.53 1007.23 1006.93 1006.64 1006.35 1006.07 1005.78 1005.49 1005.20 1004.91 1004.63 1004.35
1012.78 1012.71 1012.64 1012.57 1012.49 1012.39 1012.25 1012.07 1011.85 1011.61 1011.35 1011.08 1010.82 1010.59 1010.40 1010.26 1010.16 1010.11 1010.10 1010.09 1010.09 1010.06 1010.00 1009.88 1009.71 1009.49 1009.21 1008.89 1008.54 1008.18 1007.82 1007.47 1007.15 1006.84 1006.56 1006.30 1006.05 1005.81 1005.57 1005.33 1005.09 1004.84 1004.60 1004.35
1013.10 1013.01 1012.90 1012.77 1012.61 1012.42 1012.19 1011.93 1011.65 1011.34 1011.03 1010.73 1010.47 1010.24 1010.07 1009.95 1009.89 1009.87 1009.87 1009.89 1009.90 1009.87 1009.80 1009.67 1009.48 1009.23 1008.92 1008.57 1008.20 1007.82 1007.46 1007.11 1006.79 1006.51 1006.26 1006.04 1005.84 1005.65 1005.47 1005.29 1005.10 1004.90 1004.69 1004.48
1013.24 1013.11 1012.95 1012.76 1012.53 1012.27 1011.97 1011.64 1011.29 1010.94 1010.60 1010.28 1010.01 1009.79 1009.63 1009.53 1009.49 1009.49 1009.51 1009.54 1009.55 1009.53 1009.46 1009.32 1009.12 1008.85 1008.54 1008.19 1007.81 1007.44 1007.09 1006.77 1006.48 1006.24 1006.04 1005.87 1005.73 1005.61 1005.48 1005.35 1005.22 1005.06 1004.89 1004.70
1013.18 1013.02 1012.81 1012.57 1012.29 1011.97 1011.62 1011.25 1010.87 1010.48 1010.12 1009.80 1009.52 1009.31 1009.16 1009.07 1009.03 1009.03 1009.06 1009.09 1009.10 1009.07 1008.99 1008.84 1008.64 1008.38 1008.07 1007.74 1007.39 1007.05 1006.74 1006.46 1006.23 1006.05 1005.91 1005.81 1005.73 1005.67 1005.60 1005.53 1005.44 1005.32 1005.17 1004.99
1012.96 1012.76 1012.52 1012.25 1011.94 1011.59 1011.22 1010.83 1010.44 1010.05 1009.69 1009.37 1009.10 1008.89 1008.74 1008.64 1008.60 1008.59 1008.59 1008.60 1008.59 1008.53 1008.44 1008.29 1008.09 1007.83 1007.55 1007.25 1006.94 1006.66 1006.40 1006.19 1006.03 1005.92 1005.86 1005.83 1005.82 1005.82 1005.81 1005.79 1005.73 1005.63 1005.50 1005.32
1012.59 1012.37 1012.12 1011.84 1011.52 1011.18 1010.82 1010.45 1010.07 1009.71 1009.38 1009.07 1008.81 1008.60 1008.44 1008.33 1008.25 1008.20 1008.17 1008.13 1008.07 1007.99 1007.86 1007.70 1007.49 1007.26 1007.00 1006.74 1006.50 1006.28 1006.10 1005.96 1005.89 1005.86 1005.87 1005.92 1005.98 1006.04 1006.08 1006.09 1006.06 1005.98 1005.84 1005.65
1012.12 1011.89 1011.65 1011.38 1011.08 1010.78 1010.46 1010.13 1009.81 1009.49 1009.19 1008.92 1008.67 1008.47 1008.29 1008.14 1008.02 1007.92 1007.82 1007.72 1007.61 1007.47 1007.31 1007.12 1006.91 1006.69 1006.46 1006.25 1006.07 1005.92 1005.82 1005.78 1005.79 1005.84 1005.94 1006.06 1006.18 1006.29 1006.38 1006.42 1006.40 1006.32 1006.17 1005.95
Thickness
5796 5803 5805 5801 5801 5803 5801 5803 5799 5800 5801 5805 5811 5812 5811 5812 5811 5810 5808 5808 5806 5804 5801 5798 5796 5793 5791 5789 5787 5785 5781 5777 5773 5771 5767 5764 5763 5761 5759 5757 5756 5753 5751 5750
5783 5794 5795 5792 5798 5799 5799 5801 5801 5799 5797 5810 5810 5809 5804 5804 5804 5801 5800 5801 5799 5797 5795 5792 5789 5787 5786 5784 5782 5779 5776 5773 5769 5766 5763 5760 5758 5757 5755 5752 5751 5749 5747 5745
5775 5786 5784 5777 5790 5795 5795 5801 5799 5792 5797 5803 5799 5797 5796 5796 5796 5794 5793 5794 5793 5792 5790 5787 5786 5783 5781 5780 5777 5774 5770 5767 5765 5762 5759 5757 5756 5753 5751 5749 5747 5745 5743 5741
5772 5766 5753 5782 5799 5800 5795 5795 5799 5797 5797 5797 5794 5795 5795 5793 5790 5788 5787 5787 5787 5787 5786 5786 5784 5781 5778 5776 5773 5769 5766 5763 5760 5757 5755 5753 5751 5749 5746 5745 5743 5740 5739 5737
5765 5761 5764 5777 5787 5790 5784 5781 5792 5789 5790 5790 5792 5790 5787 5788 5786 5783 5782 5782 5782 5783 5782 5781 5779 5777 5773 5770 5767 5764 5761 5758 5756 5754 5751 5749 5746 5743 5742 5740 5738 5736 5735 5732
5757 5751 5752 5772 5784 5790 5782 5768 5784 5784 5781 5782 5782 5776 5777 5780 5778 5777 5777 5776 5776 5776 5776 5773 5772 5771 5766 5762 5759 5757 5755 5753 5751 5749 5746 5743 5740 5738 5737 5734 5732 5731 5729 5726
5751 5750 5763 5771 5779 5778 5757 5760 5774 5776 5774 5774 5771 5771 5772 5772 5770 5769 5769 5769 5769 5768 5765 5764 5764 5761 5757 5754 5751 5751 5750 5747 5744 5742 5739 5738 5735 5732 5729 5728 5725 5723 5721 5720
5748 5744 5749 5765 5768 5760 5758 5766 5768 5768 5768 5766 5764 5764 5764 5762 5760 5759 5759 5759 5759 5757 5756 5756 5755 5752 5748 5745 5745 5743 5741 5738 5735 5733 5732 5731 5727 5724 5722 5720 5717 5715 5713 5713
5747 5746 5752 5760 5759 5760 5762 5758 5759 5760 5761 5759 5757 5755 5753 5751 5751 5750 5750 5750 5750 5749 5747 5747 5745 5743 5739 5737 5737 5734 5731 5727 5724 5722 5720 5720 5718 5716 5714 5712 5711 5709 5708 5707
5737 5741 5746 5749 5752 5753 5754 5753 5754 5754 5753 5753 5748 5746 5744 5743 5742 5741 5741 5741 5741 5740 5737 5736 5735 5733 5730 5729 5727 5724 5720 5718 5715 5713 5712 5711 5709 5709 5707 5705 5704 5702 5700 5699
5727 5732 5735 5738 5742 5743 5744 5745 5745 5745 5745 5743 5740 5737 5736 5733 5732 5731 5731 5731 5731 5728 5726 5724 5724 5722 5722 5720 5717 5714 5711 5709 5708 5706 5704 5701 5699 5698 5697 5695 5693 5690 5690 5689
5725 5729 5730 5729 5735 5736 5734 5733 5734 5733 5733 5734 5732 5728 5727 5724 5723 5722 5721 5720 5718 5717 5716 5715 5713 5711 5710 5709 5707 5704 5703 5701 5700 5699 5696 5694 5691 5689 5684 5683 5680 5677 5674 5673
5723 5727 5728 5728 5727 5728 5726 5726 5726 5725 5723 5722 5722 5720 5718 5714 5713 5713 5711 5709 5707 5706 5705 5704 5702 5701 5699 5698 5696 5694 5692 5692 5691 5690 5688 5686 5684 5682 5679 5674 5670 5668 5665 5662
5716 5716 5713 5716 5717 5719 5719 5718 5718 5717 5715 5714 5712 5710 5709 5706 5704 5702 5701 5700 5699 5697 5696 5694 5692 5690 5689 5688 5686 5684 5683 5682 5680 5679 5678 5676 5674 5673 5673 5671 5668 5665 5659 5654
5706 5709 5709 5710 5709 5709 5709 5708 5706 5705 5704 5703 5702 5700 5698 5696 5693 5692 5692 5691 5690 5689 5687 5685 5682 5680 5679 5678 5676 5674 5673 5672 5670 5669 5667 5666 5664 5663 5662 5660 5659 5657 5656 5651
5698 5700 5700 5699 5698 5698 5698 5697 5695 5694 5694 5693 5692 5690 5689 5687 5685 5683 5682 5681 5679 5678 5676 5674 5672 5670 5669 5668 5666 5665 5663 5659 5658 5658 5657 5656 5654 5653 5651 5650 5648 5647 5645 5642
5688 5688 5689 5689 5689 5688 5689 5689 5688 5687 5685 5683 5682 5681 5680 5678 5675 5673 5672 5672 5670 5668 5666 5663 5661 5660 5659 5658 5657 5656 5655 5651 5647 5648 5648 5646 5645 5643 5642 5640 5638 5636 5634 5630
5685 5685 5685 5685 5683 5681 5680 5680 5680 5679 5677 5676 5675 5673 5671 5669 5666 5665 5663 5662 5660 5658 5656 5654 5652 5651 5650 5649 5647 5646 5645 5643 5641 5640 5638 5636 5634 5633 5632 5631 5629 5627 5625 5622
5675 5676 5676 5677 5677 5675 5674 5673 5672 5671 5671 5669 5667 5665 5663 5661 5659 5657 5655 5652 5649 5647 5646 5645 5640 5641 5641 5639 5637 5636 5636 5635 5632 5630 5628 5624 5624 5624 5622 5621 5619 5617 5615 5612
5665 5666 5667 5667 5668 5667 5665 5665 5664 5663 5662 5661 5659 5657 5655 5653 5651 5648 5646 5643 5642 5640 5637 5635 5634 5633 5632 5630 5627 5629 5628 5626 5625 5622 5620 5619 5617 5615 5613 5611 5609 5607 5605 5602
5654 5656 5656 5656 5656 5657 5657 5656 5656 5654 5652 5651 5650 5648 5646 5645 5643 5640 5638 5637 5634 5631 5629 5626 5626 5625 5624 5622 5619 5622 5620 5618 5616 5614 5612 5611 5608 5606 5603 5601 5599 5596 5594 5592
5645 5647 5647 5647 5647 5647 5648 5647 5647 5645 5643 5642 5641 5640 5638 5635 5634 5633 5630 5628 5626 5621 5621 5622 5620 5615 5614 5612 5615 5614 5612 5610 5608 5606 5604 5601 5599 5597 5594 5592 5589 5586 5583 5581
5636 5638 5639 5639 5639 5638 5638 5639 5638 5636 5635 5633 5631 5630 5630 5628 5628 5625 5623 5621 5619 5614 5614 5613 5608 5604 5602 5605 5606 5604 5602 5601 5599 5597 5595 5593 5590 5588 5586 5583 5580 5577 5573 5570
5627 5629 5630 5630 5630 5629 5628 5629 5629 5628 5626 5625 5624 5622 5621 5620 5619 5619 5617 5611 5608 5606 5606 5601 5597 5595 5594 5598 5597 5596 5594 5593 5591 5590 5588 5585 5582 5579 5576 5573 5570 5568 5565 5562
5620 5621 5622 5621 5621 5622 5622 5621 5621 5620 5619 5618 5617 5616 5615 5614 5611 5609 5607 5605 5600 5598 5598 5594 5590 5587 5589 5591 5590 5588 5587 5585 5583 5581 5578 5576 5573 5571 5568 5565 5562 5560 5557 5554
5613 5614 5614 5615 5616 5616 5617 5617 5616 5614 5613 5611 5610 5609 5608 5606 5604 5602 5599 5597 5594 5590 5590 5589 5586 5583 5584 5583 5581 5579 5578 5576 5574 5572 5569 5567 5564 5562 5559 5556 5553 5550 5548 5545
5608 5608 5608 5610 5611 5611 5611 5610 5608 5607 5606 5604 5602 5600 5599 5598 5597 5594 5592 5590 5588 5586 5585 5583 5581 5578 5576 5575 5573 5571 5569 5567 5564 5561 5559 5557 5554 5551 5549 5545 5543 5540 5537 5535